Time,TemperatureF,DewpointF,PressureIn,WindDirection,WindDirectionDegrees,WindSpeedMPH,WindSpeedGustMPH,Humidity,HourlyPrecipIn,Conditions,Clouds,dailyrainin,SoftwareType,DateUTC
2015-01-27 00:00:00,23.7,22.7,29.98,South,181,0.0,0.0,96,0.00,,,0.00,VWS V15.00,2015-01-27 06:00:00,
2015-01-27 00:05:00,23.7,22.7,29.98,South,181,0.0,0.0,96,0.00,,,0.00,VWS V15.00,2015-01-27 06:05:00,
2015-01-27 00:10:00,23.8,22.8,29.98,South,181,0.0,0.0,96,0.00,,,0.00,VWS V15.00,2015-01-27 06:10:00,
2015-01-27 00:15:00,23.7,22.7,29.98,NNW,331,1.0,2.0,96,0.00,,,0.00,VWS V15.00,2015-01-27 06:15:00,
2015-01-27 00:20:00,23.8,22.8,29.98,NNW,331,2.0,2.0,96,0.00,,,0.00,VWS V15.00,2015-01-27 06:20:00,
2015-01-27 00:25:00,23.7,22.7,29.99,NNW,331,1.0,3.0,96,0.00,,,0.00,VWS V15.00,2015-01-27 06:25:00,
2015-01-27 00:30:00,23.8,22.8,29.98,NNW,331,0.0,0.0,96,0.00,,,0.00,VWS V15.00,2015-01-27 06:30:00,
2015-01-27 00:35:00,23.8,22.8,29.98,NNW,331,0.0,0.0,96,0.00,,,0.00,VWS V15.00,2015-01-27 06:35:00,
2015-01-27 00:40:00,23.8,22.8,29.99,NNW,331,0.0,0.0,96,0.00,,,0.00,VWS V15.00,2015-01-27 06:40:00,
2015-01-27 00:45:00,23.7,22.7,29.99,NNW,331,0.0,0.0,96,0.00,,,0.00,VWS V15.00,2015-01-27 06:45:00,
2015-01-27 00:50:00,23.7,22.7,29.99,NNW,331,0.0,0.0,96,0.00,,,0.00,VWS V15.00,2015-01-27 06:50:00,
2015-01-27 00:55:00,23.7,22.7,29.99,NNW,331,0.0,0.0,96,0.00,,,0.00,VWS V15.00,2015-01-27 06:55:00,
2015-01-27 01:00:00,23.7,22.7,29.99,NNW,331,0.0,0.0,96,0.00,,,0.00,VWS V15.00,2015-01-27 07:00:00,
2015-01-27 01:05:00,23.7,22.7,29.99,NNW,331,0.0,0.0,96,0.00,,,0.00,VWS V15.00,2015-01-27 07:05:00,
2015-01-27 01:10:00,23.7,22.7,29.99,NNW,331,0.0,0.0,96,0.00,,,0.00,VWS V15.00,2015-01-27 07:10:00,
2015-01-27 01:15:00,23.7,22.7,30.00,NNW,331,0.0,0.0,96,0.00,,,0.00,VWS V15.00,2015-01-27 07:15:00,
2015-01-27 01:20:00,23.8,23.1,30.00,NNW,331,0.0,0.0,97,0.00,,,0.00,VWS V15.00,2015-01-27 07:20:00,
2015-01-27 01:25:00,23.7,23.0,30.00,NNW,331,0.0,0.0,97,0.00,,,0.00,VWS V15.00,2015-01-27 07:25:00,
2015-01-27 01:30:00,23.8,23.1,30.00,NNW,331,2.0,2.0,97,0.00,,,0.00,VWS V15.00,2015-01-27 07:30:00,
2015-01-27 01:35:00,23.8,23.1,30.01,NNW,331,2.0,3.0,97,0.00,,,0.00,VWS V15.00,2015-01-27 07:35:00,
2015-01-27 01:40:00,23.8,22.8,30.01,NNW,331,2.0,3.0,96,0.00,,,0.00,VWS V15.00,2015-01-27 07:40:00,
2015-01-27 01:45:00,23.8,23.1,30.01,NNE,22,2.0,4.0,97,0.00,,,0.00,VWS V15.00,2015-01-27 07:45:00,
2015-01-27 01:50:00,23.7,22.7,30.02,NNE,22,3.0,4.0,96,0.00,,,0.00,VWS V15.00,2015-01-27 07:50:00,
2015-01-27 01:55:00,23.8,23.1,30.02,NNE,22,2.0,4.0,97,0.00,,,0.00,VWS V15.00,2015-01-27 07:55:00,
2015-01-27 02:00:00,23.8,23.1,30.03,NNE,22,2.0,3.0,97,0.00,,,0.00,VWS V15.00,2015-01-27 08:00:00,
2015-01-27 02:05:00,23.8,23.1,30.03,NNE,22,3.0,5.0,97,0.00,,,0.00,VWS V15.00,2015-01-27 08:05:00,
2015-01-27 02:10:00,23.8,23.1,30.03,NNE,22,2.0,4.0,97,0.00,,,0.00,VWS V15.00,2015-01-27 08:10:00,
2015-01-27 02:15:00,23.8,23.1,30.03,NNE,22,4.0,5.0,97,0.00,,,0.00,VWS V15.00,2015-01-27 08:15:00,
2015-01-27 02:20:00,23.8,23.1,30.04,NNE,22,3.0,4.0,97,0.00,,,0.00,VWS V15.00,2015-01-27 08:20:00,
2015-01-27 02:25:00,23.8,23.1,30.04,NNE,22,3.0,5.0,97,0.00,,,0.00,VWS V15.00,2015-01-27 08:25:00,
2015-01-27 02:30:00,23.9,23.2,30.04,NNE,22,4.0,4.0,97,0.00,,,0.00,VWS V15.00,2015-01-27 08:30:00,
2015-01-27 02:35:00,23.8,23.1,30.04,NNE,22,2.0,4.0,97,0.00,,,0.00,VWS V15.00,2015-01-27 08:35:00,
2015-01-27 02:40:00,23.9,23.2,30.05,NNE,22,4.0,4.0,97,0.00,,,0.00,VWS V15.00,2015-01-27 08:40:00,
2015-01-27 02:45:00,23.8,23.1,30.04,NNE,22,4.0,5.0,97,0.00,,,0.00,VWS V15.00,2015-01-27 08:45:00,
2015-01-27 02:50:00,23.9,23.2,30.04,NNE,22,3.0,5.0,97,0.00,,,0.00,VWS V15.00,2015-01-27 08:50:00,
2015-01-27 02:55:00,23.9,23.2,30.04,NNE,22,2.0,5.0,97,0.00,,,0.00,VWS V15.00,2015-01-27 08:55:00,
2015-01-27 03:00:00,23.9,23.2,30.05,NNE,23,3.0,5.0,97,0.00,,,0.00,VWS V15.00,2015-01-27 09:00:00,
2015-01-27 03:05:00,23.9,23.2,30.05,NNE,23,3.0,5.0,97,0.00,,,0.00,VWS V15.00,2015-01-27 09:05:00,
2015-01-27 03:10:00,24.0,23.3,30.05,NNE,23,4.0,5.0,97,0.00,,,0.00,VWS V15.00,2015-01-27 09:10:00,
2015-01-27 03:15:00,23.9,23.2,30.05,NNE,23,4.0,6.0,97,0.00,,,0.00,VWS V15.00,2015-01-27 09:15:00,
2015-01-27 03:20:00,23.9,23.2,30.05,NNE,23,6.0,6.0,97,0.00,,,0.00,VWS V15.00,2015-01-27 09:20:00,
2015-01-27 03:25:00,23.9,23.2,30.06,NNE,23,4.0,8.0,97,0.00,,,0.00,VWS V15.00,2015-01-27 09:25:00,
2015-01-27 03:30:00,23.8,23.1,30.06,NNE,23,4.0,6.0,97,0.00,,,0.00,VWS V15.00,2015-01-27 09:30:00,
2015-01-27 03:35:00,23.9,23.2,30.06,NNE,19,1.0,9.0,97,0.00,,,0.00,VWS V15.00,2015-01-27 09:35:00,
2015-01-27 03:40:00,23.9,23.2,30.06,North,5,4.0,7.0,97,0.00,,,0.00,VWS V15.00,2015-01-27 09:40:00,
2015-01-27 03:45:00,23.9,22.9,30.07,North,11,7.0,9.0,96,0.00,,,0.00,VWS V15.00,2015-01-27 09:45:00,
2015-01-27 03:50:00,23.9,22.9,30.07,NNE,15,9.0,10.0,96,0.00,,,0.00,VWS V15.00,2015-01-27 09:50:00,
2015-01-27 03:55:00,23.9,22.9,30.07,NE,39,5.0,11.0,96,0.00,,,0.00,VWS V15.00,2015-01-27 09:55:00,
2015-01-27 04:00:00,23.9,22.9,30.07,NNE,17,9.0,9.0,96,0.00,,,0.00,VWS V15.00,2015-01-27 10:00:00,
2015-01-27 04:05:00,23.9,22.9,30.08,NNE,28,4.0,11.0,96,0.00,,,0.00,VWS V15.00,2015-01-27 10:05:00,
2015-01-27 04:10:00,23.8,22.8,30.08,NNE,33,6.0,11.0,96,0.00,,,0.00,VWS V15.00,2015-01-27 10:10:00,
2015-01-27 04:15:00,23.8,22.8,30.08,NNE,12,7.0,11.0,96,0.00,,,0.00,VWS V15.00,2015-01-27 10:15:00,
2015-01-27 04:20:00,23.8,22.8,30.08,NNE,17,7.0,10.0,96,0.00,,,0.00,VWS V15.00,2015-01-27 10:20:00,
2015-01-27 04:25:00,23.8,22.8,30.09,North,5,9.0,10.0,96,0.00,,,0.00,VWS V15.00,2015-01-27 10:25:00,
2015-01-27 04:30:00,23.8,22.8,30.09,NNE,18,7.0,9.0,96,0.00,,,0.00,VWS V15.00,2015-01-27 10:30:00,
2015-01-27 04:35:00,23.8,22.8,30.09,NNE,20,5.0,10.0,96,0.00,,,0.00,VWS V15.00,2015-01-27 10:35:00,
2015-01-27 04:40:00,23.7,22.7,30.09,NNE,22,5.0,7.0,96,0.00,,,0.00,VWS V15.00,2015-01-27 10:40:00,
2015-01-27 04:45:00,23.7,22.7,30.09,NNE,32,6.0,8.0,96,0.00,,,0.00,VWS V15.00,2015-01-27 10:45:00,
2015-01-27 04:50:00,23.6,22.6,30.10,NNE,19,7.0,8.0,96,0.00,,,0.00,VWS V15.00,2015-01-27 10:50:00,